Powrót do katalogu

ATLAS 5 CENTAUR DEB

LostHEO
NORAD 44005·DEBRIS·🇺🇸 United States

Wystrzelony Sep 17, 2014 z Cape Canaveral Space Force Station

Loading…

Następne Przeloty (najbliższe 24 godziny)

TLE

NieaktualneSource: Space-Track

Epoka: May 21, 2024, 08:53 UTC

1 44005U 14055BL  24142.37056653 -.00000061  00000-0  00000+0 0  9993
2 44005  19.9690 218.0589 4847021  36.2895 348.5001  1.85616350 38817

Śledź ATLAS 5 CENTAUR DEB w czasie rzeczywistym z AllMySat

Download on the App Store